San Carlos, CA

2:14 AM PST on February 25, 2018 (GMT -0800)
San Carlos

Weather History for KSQL - October, 2012

Change the Weather History Date:

Friday, October 19, 2012

  Actual Average Record
Temperature  
Mean Temperature 64 °F -  
Max Temperature 69 °F 74 °F 89 °F (1964)
Min Temperature 59 °F 47 °F 40 °F (1969)
Degree Days  
Heating Degree Days 1    
Growing Degree Days 14 (Base 50)    
Moisture  
Dew Point 59 °F    
Average Humidity 87    
Maximum Humidity 94    
Minimum Humidity 73    
Precipitation  
Precipitation 0.00 in - - ()
Sea Level Pressure  
Sea Level Pressure 30.00 in    
Wind  
Wind Speed 3 mph (NW)    
Max Wind Speed 15 mph    
Max Gust Speed 22 mph    
Visibility 10 miles    
Events      
Averages and records for this station are not official NWS values.
T = Trace of Precipitation, MM = Missing Value Source: NWS Daily Summary

Daily Weather History Graph

Daily Weather History Graph

Search for Another Location

Airport or City:

Trip Planner

Search our weather history database for the weather conditions in past years. The results will help you decide how hot, cold, wet, or windy it might be!

Date:

Astronomy

Oct. 19, 2012 Rise Set
Actual Time 7:21 AM PDT 6:25 PM PDT
Civil Twilight 6:54 AM PDT 6:52 PM PDT
Nautical Twilight 6:24 AM PDT 7:22 PM PDT
Astronomical Twilight 5:54 AM PDT 7:52 PM PDT
Moon 12:05 PM PDT (10/19) 10:13 PM PDT (10/19)
Length of Visible Light 11h 57m
Length of Day
11h 04m
Waxing Crescent, 24% of the Moon is Illuminated
Oct 19
Waxing Crescent
Oct 21
First Quarter
Oct 29
Full
Nov 6
Last Quarter
Nov 13
New

Hourly Weather History & Observations

Time (PDT) Temp. Dew Point Humidity Pressure Visibility Wind Dir Wind Speed Gust Speed Precip Events Conditions
12:10 AM 66.2 °F 59.0 °F 78% 30.02 in 10.0 mi Calm Calm - N/A   Clear
12:30 AM 64.4 °F 59.0 °F 83% 30.02 in 10.0 mi South 3.5 mph - N/A   Clear
12:55 AM 64.4 °F 60.8 °F 88% 30.01 in 10.0 mi NE 3.5 mph - N/A   Clear
1:10 AM 64.4 °F 60.8 °F 88% 30.01 in 10.0 mi Calm Calm - N/A   Clear
1:30 AM 64.4 °F 60.8 °F 88% 30.02 in 10.0 mi Calm Calm - N/A   Clear
1:55 AM 64.4 °F 60.8 °F 88% 30.03 in 10.0 mi Calm Calm - N/A   Clear
2:10 AM 64.4 °F 60.8 °F 88% 30.03 in 10.0 mi NW 3.5 mph - N/A   Clear
2:35 AM 64.4 °F 60.8 °F 88% 30.04 in 10.0 mi WNW 3.5 mph - N/A   Clear
2:55 AM 64.4 °F 60.8 °F 88% 30.03 in 10.0 mi Calm Calm - N/A   Clear
3:15 AM 64.4 °F 60.8 °F 88% 30.04 in 10.0 mi WNW 3.5 mph - N/A   Clear
3:30 AM 64.4 °F 60.8 °F 88% 30.03 in 10.0 mi West 3.5 mph - N/A   Clear
3:55 AM 64.4 °F 60.8 °F 88% 30.01 in 10.0 mi SSE 6.9 mph - N/A   Clear
4:15 AM 62.6 °F 59.0 °F 88% 30.01 in 10.0 mi South 6.9 mph - N/A   Clear
4:30 AM 62.6 °F 59.0 °F 88% 30.02 in 10.0 mi Calm Calm - N/A   Clear
4:55 AM 62.6 °F 59.0 °F 88% 30.03 in 10.0 mi East 3.5 mph - N/A   Clear
5:15 AM 62.6 °F 59.0 °F 88% 30.02 in 10.0 mi Calm Calm - N/A   Clear
5:30 AM 62.6 °F 60.8 °F 94% 30.02 in 10.0 mi Calm Calm - N/A   Clear
5:50 AM 62.6 °F 59.0 °F 88% 30.03 in 10.0 mi SSW 3.5 mph - N/A   Clear
6:15 AM 62.6 °F 59.0 °F 88% 30.03 in 10.0 mi SSW 3.5 mph - N/A   Mostly Cloudy
6:30 AM 62.6 °F 59.0 °F 88% 30.03 in 10.0 mi Calm Calm - N/A   Overcast
6:55 AM 64.4 °F 60.8 °F 88% 30.03 in 10.0 mi WSW 3.5 mph - N/A   Overcast
6:56 AM 64.4 °F 60.8 °F 88% 30.03 in 10.0 mi SW 3.5 mph - N/A   Overcast
7:57 AM 64.4 °F 62.6 °F 94% 30.05 in 8.0 mi Calm Calm - N/A   Overcast
8:47 AM 64.4 °F 62.6 °F 94% 30.05 in 8.0 mi Calm Calm - N/A   Overcast
9:05 AM 66.2 °F 62.6 °F 88% 30.05 in 10.0 mi Calm Calm - N/A   Overcast
9:56 AM 66.2 °F 62.6 °F 88% 30.06 in 10.0 mi NNW 3.5 mph - N/A   Overcast
10:47 AM 66.2 °F 62.6 °F 88% 30.06 in 10.0 mi NW 5.8 mph - N/A   Overcast
11:49 AM 66.2 °F 60.8 °F 83% 30.05 in 10.0 mi WNW 5.8 mph - N/A   Overcast
12:47 PM 68.0 °F 60.8 °F 78% 30.03 in 7.0 mi SSW 11.5 mph 21.9 mph N/A   Mostly Cloudy
2:47 PM 69.8 °F 60.8 °F 73% 29.98 in 10.0 mi North 10.4 mph - N/A   Scattered Clouds
3:53 PM 68.0 °F 60.8 °F 78% 29.96 in 10.0 mi North 15.0 mph 19.6 mph N/A   Partly Cloudy
4:47 PM 68.0 °F 59.0 °F 73% 29.95 in 10.0 mi WNW 6.9 mph - N/A   Partly Cloudy
6:47 PM 64.4 °F 59.0 °F 83% 29.94 in 10.0 mi NW 6.9 mph - N/A   Partly Cloudy
7:50 PM 60.8 °F 57.2 °F 88% 29.94 in 10.0 mi NW 8.1 mph - N/A   Partly Cloudy
8:47 PM 60.8 °F 57.2 °F 88% 29.94 in 10.0 mi WNW 6.9 mph - N/A   Overcast
9:15 PM 59.0 °F 57.2 °F 94% 29.95 in 10.0 mi NNW 6.9 mph - N/A   Overcast
9:35 PM 59.0 °F 57.2 °F 94% 29.95 in 10.0 mi NNW 5.8 mph - N/A   Overcast
9:50 PM 59.0 °F 57.2 °F 94% 29.95 in 10.0 mi NNW 4.6 mph - N/A   Overcast
10:10 PM 59.0 °F 57.2 °F 94% 29.96 in 10.0 mi North 6.9 mph - N/A   Overcast
10:35 PM 59.0 °F 55.4 °F 88% 29.96 in 10.0 mi NNW 3.5 mph - N/A   Overcast
10:50 PM 59.0 °F 55.4 °F 88% 29.96 in 10.0 mi NNW 4.6 mph - N/A   Overcast
11:15 PM 59.0 °F 55.4 °F 88% 29.96 in 10.0 mi NNW 3.5 mph - N/A   Overcast
11:35 PM 59.0 °F 55.4 °F 88% 29.96 in 10.0 mi NW 6.9 mph - N/A   Overcast
11:50 PM 59.0 °F 55.4 °F 88% 29.96 in 10.0 mi NNW 5.8 mph - N/A   Overcast